CZ-6A DEB, 54298

Orbit data source: Space-Track

CZ-6A DEB, 54298 is space debris in SSO originally from a launch on Fri, 11 Nov 2022 UTC launched from the Taiyaun Space Center, China (TSC). Debris objects in space refer to the collection of defunct objects orbiting the Earth. Examples of debris include non-operational satellites, rocket bodies, and fragments generated from explosions, collisions, or faulty payload assembly.

Loading next visibility...
Identifier
54298, 2022-151AR
Orbit
SSO
Country
Flag of CNCN / PRC
Related business
Manufacturer
SAST
Mission
Spacecraft
Bus & Motor
Unknown
Mass
Unknown
Launch date (UTC)
2022-11-11 (3 years ago)
Launch vehicle
Unknown
Launch site
Taiyaun Space Center, China (TSC)
Object type
Payload
Rocket body
Debris
Shape & HBR
Unknown shape, 0.1 m
Radar Cross Section
Small (<0.1 m²)

Expand to show TLE details & history
Last TLE update: 10 hours ago

TLE from 10 hours ago
0 CZ-6A DEB
1 54298U 22151AR  25352.95764860  .00000279  00000-0  19011-3 0  9994
2 54298  98.8182 340.2937 0062052 146.1855 214.3294 14.06812931158698
Epoch: 2025-12-18T22:59Z
TLE epoch observation values (Epoch: 2025-12-18T22:59:00.839Z)
Latitude
-0.00008°
Longitude
-92.26548°
Altitude
910.43 km
Speed
7.378 km/s
True Right ascension
22h 41m 10s
True Declination
0° 00' 00"
Sunlit
Object was in daylight at epoch
Visualization orbit readout
Latitude
Unknown
Longitude
Unknown
Altitude
Unknown
Speed
Unknown
Apparent Right ascension
Unknown
Apparent Declination
Unknown
Sunlit
N/A
Visualization observer readout
Local Sidereal Time
08:04:31
Azimuth
Unknown
Elevation
Unknown
Doppler factor
Unknown
Orbital elements
Apogee altitude
912.44 km
Perigee altitude
822.519 km
Semi-major axis
7,245.617 km
Eccentricity
0.00621
Inclination
98.8182°
RAAN
340.2937°
Arg. of periapsis
146.1855°
True anomaly
213.93095°
Mean anomaly
214.3294°
Eccentric anomaly
214.12992°
Mean motion
3.51909 °/min
Orbital period
102.3 mins
BSTAR
0.00019011
Loading maneuver chart data...
Computing Atmospheric mass density...

Documentation

Showing up to 5 results
|